AirNav   Everest Fuels
 
 1651 users online  

01IN Community Hospital Heliport
Anderson, Indiana, USA

GOING TO ANDERSON?


FAA INFORMATION EFFECTIVE 10 SEPTEMBER 2020

Location

FAA Identifier: 01IN
Lat/Long: 40-07-59.3500N 085-41-39.9200W
40-07.989167N 085-41.665333W
40.1331528,-85.6944222
(estimated)
Elevation: 890 ft. / 271 m (estimated)
Variation: 03W (1985)
From city: HELIPORT LCTD WITHIN CITY LIMITS.
Time zone: UTC -4 (UTC -5 during Standard Time)
Zip code: 46011

Heliport Operations

Heliport use: Private use, MEDICAL USE.
Activation date: 09/1972
Control tower: no
ARTCC: INDIANAPOLIS CENTER
FSS: TERRE HAUTE FLIGHT SERVICE STATION
Attendance: UNATNDD
Wind indicator: yes
Segmented circle: yes

Heliport Communications

WX AWOS-3 at AID (4 nm E): 128.55 (765-442-1245)
WX ASOS at MIE (15 nm NE): 114.4 (765-288-9617)
WX AWOS-3 at MQJ (20 nm SW): 124.175 (317-335-3037)

Nearby radio navigation aids

VOR radial/distance  VOR name  Freq  Var
MIEr249/15.1MUNCIE VOR/DME114.4003W
MZZr185/21.6MARION VOR/DME108.6003W
OKKr150/28.9KOKOMO VORTAC113.5005W
SHBr010/30.6SHELBYVILLE VOR/DME112.0001E
VHPr057/36.4BRICKYARD VORTAC116.3001E
GUSr148/37.1GRISSOM VORTAC108.4502W

 
NDB name  Hdg/Dist  Freq  Var  ID
VIDEO297/9.339403WAI .- ..
METROPOLITAN057/20.133803WUMP ..- -- .--.
NEW CASTLE317/23.038506WUWL ..- .-- .-..

Heliport Services

Airframe service: NONE
Powerplant service: NONE

Runway Information

Helipad H1

Dimensions: 45 x 45 ft. / 14 x 14 m
Surface: asphalt
Latitude: 40-07.989167N
Longitude: 085-41.665333W
Elevation: 890.0 ft.
Traffic pattern: leftleft

Heliport Ownership and Management from official FAA records

Ownership: Privately-owned
Owner: COMMUNITY HOSPITAL
1515 N MADISON AVENUE
ANDERSON, IN 46011
Phone 765-298-5125
Manager: BILL VANNESS, CEO
1515 N MADISON AVENUE
ANDERSON, IN 46011
Phone 765-298-5125
ROB HAYES 765-298-5617.

Additional Remarks

FOR CD CTC INDIANAPOLIS APCH AT 317-227-5743.

Instrument Procedures

There are no published instrument procedures at 01IN.

Some nearby airports with instrument procedures:

KAID - Anderson Municipal Airport-Darlington Field (4 nm E)
KMIE - Delaware County Regional Airport (15 nm NE)
KMQJ - Indianapolis Regional Airport (20 nm SW)
KUMP - Indianapolis Metropolitan Airport (20 nm SW)
KMZZ - Marion Municipal Airport (21 nm N)
 
Loc | Ops | Rwys | IFR | FBO | Links
Com | Nav | Svcs | Stats | Notes
Area around 01IN (Community Hospital Heliport)
 
Road maps at: MapQuest Bing Google
 
Aerial photo
No photo
 
Sectional chart

 
Airport distance calculator
Flying to Community Hospital Heliport? Find the distance to fly.

From to 01IN

Sunrise and sunset
Times for 28-Sep-2020
 Local
(UTC-4)
 Zulu
(UTC)
Morning civil twilight07:1111:11
Sunrise07:3811:38
Sunset19:2823:28
Evening civil twilight19:5523:55

Current date and time
Zulu (UTC)  28-Sep-2020 19:16:25
Local (UTC-4)  28-Sep-2020 15:16:25
 
METAR
KAID 
4nm E 
281759Z 30011KT 2SM DZ OVC005 13/12 A2978
KMIE 
15nm NE 
281853Z 31009KT 5SM -RA BR BKN006 BKN012 OVC043 14/12 A2977 RMK AO2 SLP074 P0004 T01390117
KMQJ 
20nm SW 
281855Z AUTO 29007KT 10SM SCT006 BKN028 OVC048 13/13 A2980 RMK AO1
TAF
KGUS 
37nm NW 
281619Z 2816/2919 31012KT 9999 -RA OVC005 QNH2973INS BECMG 2820/2821 27009G18KT 8000 -RA BR SCT008 BKN020 520019 QNH2977INS BECMG 2902/2903 27009KT 9999 NSW FEW016 SCT020 QNH2990INS BECMG 2914/2915 24009G18KT 9999 SCT025 QNH2990INS TX16/2918Z TN04/2911Z
KIND 
37nm SW 
281723Z 2818/2924 30014KT 4SM -RA BR BKN007 OVC012 FM281900 30011G19KT P6SM OVC015 FM282100 29010KT P6SM VCSH BKN025 FM282300 28010KT P6SM VCSH SCT030 FM290000 28009KT P6SM SCT035 FM290600 27006KT P6SM SCT015
NOTAMs
Click for the latest NOTAMs
NOTAMs are issued by the DoD/FAA and will open in a separate window not controlled by AirNav.

 

 
 

Would you like to see your business listed on this page?

 If your business provides an interesting product or service to pilots, flight crews, aircraft, or users of the Community Hospital Heliport, you should consider listing it here.  To start the listing process, click on the button below
 
Add a business
 

Other Pages about Community Hospital Heliport

Update a link
 
Copyright © AirNav, LLC. All rights reserved. Privacy Policy  Contact